www.pogodaiklimat.ru

Погода и климат >> Архив погоды >> Россия >> Челябинская область >> Магнитогорск


АРХИВ ПОГОДЫ в Магнитогорске

Время (UTC), дата Ветер
(напр.,м/с)
 
Видим.   Явления Облачность Т
(С)
Тd
(С)
f
(%)
Тe
(С)
Тes
(С)
Комфортность P
(гПа)
Po
(гПа)
Тmin
(С)
Tmax
(С)
R
(мм)
R24
(мм)
S
(см)
12 12.08 ЮЗ 3
{10}
20 км 9/9 600 м
[Cb cap]
+24.5 +6.7 32 +25 +25 комфорт 994.6 952.0
15 12.08 ЮЗ 3 20 км 6/6 600 м
[Cb cap]
+22.1 +6.2 36 +23 +23 комфорт 995.4 952.4 +25.8
18 12.08 З 2 10 км 8/8 600 м
[Cb cap]
+16.7 +8.9 60 +17 +17 тепло 995.6 951.9
21 12.08 З 1 10 км 3/3 600 м
[Sc]
+11.7 +10.0 89 +11 +11 прохладно 996.4 951.9
00 13.08 С 2 10 км 6/6 600 м
[Sc]
+13.9 +11.0 83 +13 +13 по сезону 996.4 952.3
03 13.08 С 4 20 км 4/4 600 м
[Sc]
+15.9 +12.7 81 +15 +16 по сезону 996.7 952.8 +11.2
06 13.08 С 4 20 км 4/3 600 м
[Sc Ci fib]
+21.7 +12.2 55 +24 +29 комфорт 996.0 953.0
09 13.08 С 7-11
{11}
20 км 8/8 600 м
[Cb cap]
+22.6 +12.0 51 +25 +26 комфорт 996.5 953.6
12 13.08 СЗ 2
{15}
4000 м гроза, ливневой дождь 10/10 600 м
[Cb cap]
+13.5 +12.0 91 +13 +13 очень
холодно
1000.5 956.1
15 13.08 СЗ 2 20 км в посл. час гроза {ливн. осадки} 10/10 600 м
[Cb cap]
+13.7 +12.8 94 +13 +13 холодно 1001.6 957.2 +23.8 37
18 13.08 СЗ 2 10 км в посл. час ливневой дождь {гроза} 10/10 600 м
[Cb cap]
+13.8 +13.0 95 +13 +13 прохладно 1002.2 957.8
21 13.08 С 2 10 км 10/10 600 м
[Cb cap]
+15.2 +13.4 89 +15 +15 по сезону 1001.7 957.6
00 14.08 С 2 10 км в посл. час гроза {ливн. осадки} 8/8 600 м
[Cb cap]
+14.9 +13.2 90 +15 +15 тепло 1002.5 958.2
03 14.08 В 3 20 км {ливн. осадки} 10/10 600 м
[Sc]
+15.9 +14.1 89 +15 +15 по сезону 1004.4 960.3 +13.6 16
06 14.08 СВ 5 20 км {ливн. осадки} 10/10 600 м
[Sc]
+17.3 +14.0 81 +17 +17 прохладно 1006.6 962.6
09 14.08 С 2 20 км 6/6 600 м
[Cb cap]
+18.4 +15.0 81 +19 +24 прохладно 1007.4 963.5
12 14.08 С 3 20 км {ливн. осадки} 9/9 600 м
[Cb cap]
+19.7 +12.2 62 +21 +22 комфорт 1008.1 964.3
15 14.08 С 3 20 км 10/10 600 м
[Cb cap]
+17.7 +14.4 81 +18 +18 по сезону 1010.0 965.9 +22.5 0.4
18 14.08 С 3 10 км 10/10 600 м
[Cb cap]
+16.5 +14.0 85 +16 +16 по сезону 1011.5 967.1
21 14.08 С 2 10 км 3/3 600 м
[Sc]
+14.2 +12.3 88 +14 +14 по сезону 1012.0 967.2
00 15.08 С 1 10 км 3/3 600 м
[Sc]
+12.8 +11.1 89 +13 +13 по сезону 1013.5 968.4
03 15.08 С 3 20 км ясно +16.9 +13.1 78 +17 +19 тепло 1013.7 969.3 +12.4
06 15.08 С 4 20 км 4/4 600 м
[Cu med, cong]
+21.5 +13.4 60 +24 +28 комфорт 1014.1 970.4
09 15.08 С 1 20 км 4/4 600 м
[Cu med, cong]
+23.7 +11.3 46 +25 +34 комфорт 1013.8 970.4
12 15.08 С 3 20 км 6/6 600 м
[Cu med, cong]
+23.2 +11.9 49 +26 +27 жарко 1013.6 970.1
15 15.08 СВ 2 20 км 8/8 600 м
[Sc]
+21.6 +13.6 60 +24 +24 комфорт 1014.1 970.4 +25.1
18 15.08 штиль 0 10 км 8/0
[Ac trans]
+17.0 +13.9 82 +17 +17 тепло 1016.2 971.7
21 15.08 С 2 10 км 6/0
[Ac trans]
+16.3 +12.6 79 +16 +16 тепло 1017.0 972.4
00 16.08 С 2 10 км 3/0
[Ac trans]
+13.9 +11.9 88 +13 +13 по сезону 1018.3 973.2
03 16.08 штиль 0 20 км дымка 3/0
[Ac trans]
+17.8 +14.4 80 +18 +20 тепло 1018.0 973.6 +12.4
06 16.08 З 1 20 км 4/4 1000 м
[Cu hum]
+22.9 +12.2 51 +26 +33 жарко 1017.4 973.7
09 16.08 В 2 20 км 3/3 600 м
[Cu hum]
+24.8 +11.0 42 +26 +35 жарко 1016.1 972.7
12 16.08 З 1 20 км ясно +26.6 +9.6 34 +27 +33 жарко 1015.3 972.2
15 16.08 В 1 20 км ясно +23.1 +13.2 54 +26 +26 жарко 1015.9 972.3 +26.8
18 16.08 СВ 2 10 км ясно +17.7 +11.9 69 +18 +18 тепло 1017.4 972.9
21 16.08 штиль 0 10 км ясно +14.1 +11.9 87 +14 +14 по сезону 1018.2 973.1
00 17.08 штиль 0 10 км 3/3 600 м
[Sc]
+12.3 +10.6 89 +12 +12 по сезону 1019.2 973.8
03 17.08 В 1 4000 м 4/0
[Cs]
+17.7 +14.4 81 +19 +21 тепло 1018.6 974.1 +11.8
06 17.08 ЮЗ 2 20 км 3/0
[Ac trans]
+25.7 +13.3 46 +28 +36 жарко 1017.4 974.1
09 17.08 З 2 20 км 8/0
[Cs]
+28.6 +9.7 31 +29 +39 жарко 1016.9 973.9
12 17.08 ЮЗ 2 20 км 6/0
[Cs]
+29.7 +9.1 28 +29 +34 жарко 1016.2 973.4
15 17.08 штиль 0 20 км 8/0
[Ac trans]
+26.0 +13.7 47 +28 +28 жарко 1016.7 973.5 +29.8
18 17.08 СЗ 1 10 км ясно +18.8 +13.9 73 +21 +21 комфорт 1018.3 974.0
21 17.08 штиль 0 10 км ясно +15.3 +12.6 84 +15 +15 тепло 1019.3 974.4
00 18.08 СЗ 1 10 км ясно +14.4 +12.4 88 +15 +15 тепло 1019.4 974.4
03 18.08 штиль 0 4000 м дымка 8/0
[Cs]
+18.4 +15.1 81 +19 +21 тепло 1019.6 975.2 +13.7
06 18.08 З 1 20 км 4/0
[Ci fib]
+27.2 +13.8 44 +29 +40 жарко 1018.5 975.4
09 18.08 З 1 20 км 8/0
[Ci fib]
+29.6 +10.2 30 +30 +41 жарко 1018.2 975.4
12 18.08 З 3
{13}
20 км 8/0
[Cs]
+30.3 +7.8 24 +29 +33 жарко 1018.2 975.5
15 18.08 З 1 20 км 3/0
[Cc]
+26.8 +8.9 32 +27 +27 жарко 1019.2 975.9 +31.6
18 18.08 СЗ 1 10 км 4/0
[Ac trans]
+20.8 +13.4 63 +24 +24 комфорт 1021.4 977.3
21 18.08 С 2 10 км ясно +17.5 +12.8 74 +18 +18 тепло 1022.3 977.6
00 19.08 С 2 10 км 9/9 600 м
[Sc]
+17.4 +14.1 81 +18 +18 тепло 1023.3 978.5
03 19.08 СВ 3 20 км 8/0
[Ac cast]
+22.0 +14.7 63 +25 +26 комфорт 1023.7 979.6 +15.6
06 19.08 СВ 3 20 км 9/9 1000 м
[Sc]
+23.8 +15.2 59 +27 +28 жарко 1024.1 980.3
09 19.08 В 2 20 км 8/0
[Ac trans]
+27.2 +14.7 46 +30 +36 душно 1023.4 980.1

 

Местоположение метеостанции Магнитогорск (Челябинская область, Россия): широта 53.35 долгота 59.08 высота над уровнем моря 384 м.

В архиве по умолчанию представлена погода в Магнитогорске за последнюю неделю. Архивные данные за месяц целиком и за предыдущие месяцы, начиная с января 2011 года, Вы можете получить, выбрав интересующий диапазон дат из раскрывающегося списка и нажав кнопку "Ввод!".


*Определитесь, кто Вы:
робот инопланетянин человек

Внимание! Время в таблицах - всемирное. Для получения местного времени необходимо прибавить поправку, которая равна 5 ч.

Смотрите также архив погоды в соседних городах и на ближайших метеорологических станциях:

Погода в Верхнеуральске (Челябинская область, Россия) (59 км)
Погода в Кизильском (Челябинская область, Россия) (71 км)
Погода в Белорецке (Башкирия, Россия) (81 км)
Погода в Карталы (Челябинская область, Россия) (111 км)
Погода в Тукане (Башкирия, Россия) (112 км)
Погода в Старосубхангулово (Башкирия, Россия) (113 км)
Погода в Учалах (Башкирия, Россия) (115 км)
Погода в Николаевке (Башкирия, Россия) (116 км)
Погода в Бредах (Челябинская область, Россия) (133 км)
Погода в Ревети (Башкирия, Россия) (133 км)

Пояснения к столбцам:

Ветер - указаны скорость ветра в м/с - средняя за 10 мин, порывы в срок и между сроками (в фигурных скобках) и направление, откуда дует ветер: С - северный, СВ - северо-восточный, В - восточный, ЮВ - юго-восточный, Ю - южный, ЮЗ - юго-западный, З - западный, СЗ - северо-западный.
Видимость - горизонтальная дальность видимости в метрах или километрах. При видимости от 1 до 10 км при отсутствии осадков обычно наблюдается дымка, при ухудшении видимости до 1 км и менее - туман. В сухую погоду видимость может ухудшаться дымом, пылью или мглою.
Явления - указаны атмосферные явления, наблюдавшиеся в срок или в последний час перед сроком; фигурными скобками обозначены явления, наблюдавшиеся между сроками (за 1-3 часа до срока); квадратными скобками обозначены град или гололедные отложения с указанием их диаметра в мм.
Облачность - указаны через наклонную черту общая и нижняя облачность в баллах и высота нижней границы облаков в метрах; квадратными скобками обозначены формы облаков: Ci - перистые, Cs - перисто-слоистые, Cc - перисто-кучевые, Ac - высококучевые, As - высокослоистые, Sc - слоисто-кучевые, Ns - слоисто-дождевые, Cu - кучевые, Cb - кучево-дождевые. Подробнее классификацию облаков см. в Атласе облаков (PDF).
T - Температура воздуха - температура, измеренная на высоте 2 м над землей.
Td - Температура точки росы - температура, при понижении до которой содержащийся в воздухе водяной пар достигнет насыщения.
f - Относительная влажность воздуха - влажноcть воздуха, измеренная на высоте 2 м над землей.
Te - Эффективная температура - температура, которую ощущает одетый по сезону человек в тени. Характеристика душности погоды. При расчете учитывается влияние влажности воздуха и скорости ветра на теплоощущения человека.
Tes - Эффективная температура на солнце - температура, которую ощущает человек, с поправкой на солнечный нагрев. Характеристика знойности погоды. Зависит от высоты солнца над горизонтом, облачности и скорости ветра. Ночью, в пасмурную погоду, а также при ветре 12 м/с и более поправка равна нулю.
P - Атмосферное давление - приведенное к уровню моря атмосферное давление.
Po - Атмосферное давление - измеренное на уровне метеостанции атмосферное давление.
Tmin - Минимальная температура - минимум температуры воздуха на высоте 2 м над землей.
Tmax - Максимальная температура - максимум температуры воздуха на высоте 2 м над землей.
R - Количество осадков - Количество выпавших осадков за период времени, мм. При наведении курсора мыши на число - период времени, за который выпало указанное количество осадков.
R24 - Количество осадков - Количество выпавших осадков за 24 часа, мм.
S - Снежный покров - Высота снежного покрова, см. При наведении курсора мыши на число - состояние снежного покрова и степень покрытия местности в баллах.